This is the latest recevied weather packets stored in our database for station/object N3TJJ-11. If no packets are shown the sender has not sent any weather packets the latest 10 day(s).
| Time | Temp. | Humidity | Pressure | Rain* | Wind** | Luminosity | Snow |
|---|---|---|---|---|---|---|---|
| 1777165924 | 5.56° C | 93% | 1013.1 hPa | 2.03 mm | - | - | - |
| 1777165450 | 5.56° C | 92% | 1013 hPa | 1.52 mm | - | - | - |
| 1777165204 | 5.56° C | 92% | 1012.7 hPa | 1.27 mm | - | - | - |
| 1777164847 | 5.56° C | 93% | 1012.6 hPa | 1.27 mm | - | - | - |
| 1777164484 | 5.56° C | 92% | 1012.6 hPa | 1.02 mm | - | - | - |
| 1777164245 | 5.56° C | 92% | 1012.7 hPa | 1.02 mm | - | - | - |
| 1777163764 | 6.11° C | 92% | 1012.6 hPa | 0.51 mm | - | - | - |
| 1777163647 | 6.11° C | 92% | 1012.5 hPa | 0.25 mm | - | - | - |
| 1777163044 | 6.11° C | 92% | 1012.4 hPa | 0.25 mm | - | - | - |
| 1777162446 | 6.11° C | 92% | 1012.2 hPa | 0 mm | - | - | - |
| 1777162324 | 6.11° C | 92% | 1012.2 hPa | 0 mm | - | - | - |
| 1777161853 | 6.11° C | 92% | 1012.3 hPa | 0 mm | - | - | - |
| 1777161604 | 6.11° C | 92% | 1012.3 hPa | 0 mm | - | - | - |
| 1777161245 | 6.11° C | 93% | 1012.2 hPa | 0 mm | - | - | - |
| 1777160884 | 6.11° C | 92% | 1012.2 hPa | 0 mm | - | - | - |
| 1777160645 | 6.11° C | 92% | 1012.1 hPa | 0 mm | - | - | - |
| 1777160164 | 6.11° C | 92% | 1011.9 hPa | 0 mm | - | - | - |
| 1777160051 | 6.11° C | 92% | 1011.9 hPa | 0 mm | - | - | - |
| 1777159444 | 6.11° C | 92% | 1011.8 hPa | 0 mm | - | - | - |
| 1777158846 | 6.11° C | 92% | 1011.8 hPa | 0.25 mm | - | - | - |
| 1777158725 | 6.11° C | 92% | 1011.7 hPa | 0.25 mm | - | - | - |
| 1777158252 | 6.11° C | 92% | 1011.7 hPa | 0.25 mm | - | - | - |
| 1777158004 | 6.11° C | 92% | 1011.8 hPa | 0.25 mm | - | - | - |
| 1777157646 | 6.11° C | 92% | 1011.8 hPa | 0.25 mm | - | - | - |
| 1777157285 | 6.11° C | 92% | 1011.7 hPa | 0.25 mm | - | - | - |
* Rain latest hour (hover to see other rain measurements)
** Current wind speed in m/s (hover to see current wind gust speed)